www.pogodaiklimat.ru

ПОГОДА в Ланай-Сити, HI

  • Прогноз погоды в Ланай-Сити
  • Монитор погоды в Ланай-Сити
  • Климат в Ланай-Сити

АРХИВ ПОГОДЫ в Ланай-Сити

Время (UTC), дата Ветер
(напр.,м/с)
 
Видим.   Явления Облачность Т
(С)
Тd
(С)
f
(%)
Тe
(С)
Тes
(С)
Комфортность

P
(гПа)

Po
(гПа)
Тmin
(С)
Tmax
(С)
R
(мм)
SD
(см)
21:05 17.08 нст  16 км    8/8 690 м  +28.0  +22.0  70  +36  +40  очень
душно 
  971.5         
21:56 17.08 С  4
{9} 
16 км    10/10 690 м  +26.1  +22.8  82  +35  +35  очень
душно 
1016.6  971.5         
22:33 17.08 С  8
{10} 
16 км    10/10 780 м  +28.0  +22.0  70  +36  +36  очень
душно 
  970.9         
22:53 17.08 СВ  6
{11} 
16 км    5/5 840 м  +28.0  +22.0  70  +36  +39  очень
душно 
  970.6         
22:56 17.08 СВ  7
{11} 
16 км    5/5 840 м  +28.3  +22.2  70  +37  +39  очень
душно 
1015.6  970.6  +25.0  +28.3     
23:56 17.08     16 км    ясно  +28.3  +21.7  67  +36  +61  опасность
солнечного
удара 
1014.9  969.9         
00:56 18.08 СВ  16 км    10/10 1050 м  +27.2  +22.2  74  +35  +35  очень
душно 
1014.9  969.9         
01:56 18.08 СВ  10
{13} 
16 км    10/10 990 м  +26.7  +22.8  79  +35  +35  очень
душно 
1014.7  969.6         
02:56 18.08 СВ  10
{13} 
16 км    ясно  +25.0  +22.8  88  +33  +33  очень
душно 
1014.8  969.6         
03:56 18.08 СВ  16 км    2/2 810 м  +23.9  +22.8  94  +32  +32  очень
душно 
1015.4  970.2         
04:56 18.08 СВ  16 км    ясно  +23.3  +22.8  97  +32  +32  очень
душно 
1015.6  970.6  +23.3  +28.9     
05:30 18.08 СВ  16 км    8/8 690 м  +23.0  +23.0  100  +32  +32  очень
душно 
  970.9         
05:56 18.08 С  16 км    5/5 690 м  +22.8  +22.8  100  +31  +31  очень
душно 
1016.2  971.2         
06:03 18.08 СВ  16 км    8/8 690 м  +23.0  +23.0  100  +32  +32  очень
душно 
  971.2         
06:11 18.08 С  16 км    5/5 690 м  +23.0  +23.0  100  +32  +32  очень
душно 
  971.5         
06:20 18.08 СВ  16 км    8/8 690 м  +23.0  +23.0  100  +32  +32  очень
душно 
  971.5         
06:56 18.08 СВ  8
{10} 
16 км    8/8 690 м  +22.8  +22.2  96  +31  +31  очень
душно 
1016.8  971.5         
07:56 18.08 СВ  16 км    10/10 690 м  +23.3  +22.2  94  +32  +32  очень
душно 
1017.1  971.9         
08:56 18.08 СВ  16 км    10/10 750 м  +22.8  +22.2  96  +31  +31  очень
душно 
1016.8  971.9         
09:18 18.08 В  16 км    5/5 750 м  +23.0  +22.0  94  +31  +31  очень
душно 
  971.5         
09:54 18.08 В  16 км    8/8 750 м  +22.0  +22.0  100  +29  +29  очень
душно 
  971.2         
09:56 18.08 В  16 км    10/10 750 м  +22.2  +21.7  97  +29  +29  очень
душно 
1016.2  971.2         
10:09 18.08 В  16 км    10/10 750 м  +23.0  +22.0  94  +31  +31  очень
душно 
  970.9         
10:56 18.08 В  16 км    10/10 960 м  +21.7  +21.7  100  +28  +28  душно  1015.6  970.6  +21.7  +23.3     
11:56 18.08 СВ  16 км    ясно  +21.7  +21.7  100  +28  +28  душно             
12:56 18.08 СВ  16 км    ясно  +21.0            1015.4  970.2         
13:56 18.08 СВ  16 км    ясно  +20.0  +20.0  100  +24  +24  комфорт  1015.4  970.2         
14:56 18.08 СВ  16 км    ясно  +20.6  +20.6  100  +26  +26  душно  1015.7  970.2         
15:56 18.08 СВ  16 км    ясно  +21.1  +21.1  100  +26  +26  душно  1016.0  970.6         
16:56 18.08 СВ  16 км    ясно  +23.9  +21.7  88  +31  +31  очень
душно 
1016.2  970.9  +20.0  +23.9     
17:56 18.08 В  16 км    5/5 930 м  +26.1  +19.4  67  +32  +33  очень
душно 
1016.3  971.2         
18:56 18.08 З  16 км    10/10 930 м  +26.1  +20.0  69  +32  +32  очень
душно 
1016.5  971.5         
19:24 18.08 нст  16 км    10/10 870 м  +26.0  +21.0  74  +33  +33  очень
душно 
  971.5         
19:32 18.08 ЮЗ  16 км    10/10 960 м  +26.0  +21.0  74  +33  +33  очень
душно 
  971.5         
19:56 18.08 ЮЗ  16 км    10/10 750 м  +26.1  +21.1  74  +33  +33  очень
душно 
           
20:07 18.08 нст  16 км    10/10 750 м  +26.0  +21.0  74  +33  +33  очень
душно 
  971.2         
20:16 18.08 нст  16 км    10/10 750 м  +26.0  +21.0  74  +33  +33  очень
душно 
  971.2         
20:23 18.08   16 км    10/10 750 м  +26.0  +21.0  74  +33  +33  очень
душно 
  971.2         
20:33 18.08 СЗ  16 км    10/10 750 м  +27.0  +21.0  70  +34  +34  очень
душно 
  970.9         
20:56 18.08   16 км    10/10 750 м  +26.1  +21.1  74  +33  +33  очень
душно 
1015.9  970.9         
21:34 18.08     16 км    10/10 900 м  +26.0  +21.0  74  +33  +33  очень
душно 
           
21:56 18.08 нст  16 км    10/10 870 м  +26.7  +21.1  71  +34  +34  очень
душно 
1015.1  969.9         
22:39 18.08 СЗ  16 км    10/10 780 м  +26.0  +21.0  74  +33  +33  очень
душно 
           
22:56 18.08     16 км    10/10 960 м  +26.1  +21.1  74  +33  +33  очень
душно 
    +23.9  +26.7     
23:56 18.08 нст  16 км    8/8 660 м  +26.1  +21.7  77  +34  +37  очень
душно 
1014.3  969.3         
00:56 19.08 СВ  16 км    2/2 1050 м  +26.7  +19.4  64  +32  +34  очень
душно 
1013.8  968.6         
01:56 19.08 СВ  16 км    2/2 1470 м  +26.1  +20.0  69  +32  +33  очень
душно 
1013.6  968.6         
02:56 19.08 СВ  16 км    ясно  +25.0  +19.4  71  +30  +31  душно  1013.9  968.6         

 

Местоположение метеостанции Lanai Airport: широта 20.7856 долгота -156.9514 высота над уровнем моря 399 м.

В архиве по умолчанию представлена погода в Ланай-Сити за последние 1-2 суток. Обновление информации о фактической погоде в базе происходит ежечасно! Архивные данные за месяц целиком и за предыдущие месяцы Вы можете получить, выбрав интересующий диапазон дат из раскрывающегося списка и нажав кнопку "Ввод!".

Внимание! Архив погоды МЕТАР в базе сайта хранится не более 60 дней. Нет смысла пытаться выбрать более раннюю дату.

Внимание! Время в таблицах - всемирное. Для получения местного времени необходимо прибавить поправку, которая в Ланай-Сити равна -10 ч.

Ветер - указаны скорость ветра в м/с и направление, откуда дует ветер: С - северный, СВ - северо-восточный, В - восточный, ЮВ - юго-восточный, Ю - южный, ЮЗ - юго-западный, З - западный, СЗ - северо-западный.
Видимость - горизонтальная дальность видимости в метрах или километрах. При видимости от 1 до 10 км при отсутствии осадков обычно наблюдается дымка, при ухудшении видимости до 1 км и менее - туман. В сухую погоду видимость может ухудшаться дымом, пылью или мглою.
Атмосферные явления - указаны явления, наблюдавшиеся в указанный момент времени.
Облачность - указаны через наклонную черту верхняя и нижняя облачность в баллах и высота нижней границы облаков в метрах. Внимание: облачность, как и прочие метеорологические величины в США измеряются автоматическими метеостанциями. Указанные значения в баллах носят условный характер и показывают процент времени, в течение которого, в среднем, лазерный луч высотомера отражался от облаков обратно.
T - Температура воздуха - температура, измеренная на высоте 2 м над землей.
Td - Температура точки росы - температура, при понижении до которой содержащийся в воздухе водяной пар достигнет насыщения.
f - Относительная влажность воздуха - влажноcть воздуха, измеренная на высоте 2 м над землей.
Te - Эффективная температура - температура, которую ощущает одетый по сезону человек в тени. Характеристика душности погоды. При расчете учитывается влияние влажности воздуха и скорости ветра на теплоощущения человека.
Tes - Эффективная температура на солнце - температура, которую ощущает человек, с поправкой на солнечный нагрев. Характеристика знойности погоды. Зависит от высоты солнца над горизонтом, облачности и скорости ветра. Ночью, в пасмурную погоду, а также при ветре 12 м/с и более поправка равна нулю.
P - Атмосферное давление - приведенное к уровню моря атмосферное давление.
Po - Атмосферное давление - измеренное на уровне метеостанции атмосферное давление.
Tmin - Минимальная температура - минимум температуры воздуха на высоте 2 м над землей.
Tmax - Максимальная температура - максимум температуры воздуха на высоте 2 м над землей.
R - Количество осадков - Количество выпавших осадков за 3 или 6 часов, мм.
SD - Снежный покров - Высота снежного покрова, см.